Theta_e
307 312 321 323 320 319 324 320 321 319 319 320 319 318 320 334 342 340 340 340 339 339 338 336 336 337 340 341 341 344 344 344 342 339 342 339 335 337 340 341 342 342 340 342 341 340 340 338 329
306 324 318 311 319 321 315 318 319 317 318 318 317 321 342 343 340 342 340 338 339 338 338 335 334 337 340 341 340 341 343 344 343 341 342 341 336 340 341 341 342 342 340 341 342 342 338 331 328
309 320 316 313 313 316 316 316 314 315 315 314 316 325 339 344 341 341 341 339 335 336 334 332 332 335 337 340 340 340 341 342 343 342 342 340 340 341 341 340 342 342 342 341 342 339 329 328 332
316 317 311 315 316 314 316 314 312 312 312 312 314 344 343 341 340 341 340 339 333 333 332 332 331 333 338 340 341 340 340 341 342 342 342 339 340 340 339 341 342 342 341 340 339 330 329 334 334
312 310 314 313 313 312 313 313 312 311 312 312 317 345 345 341 341 340 338 335 332 333 332 333 334 333 338 341 342 340 340 339 342 342 341 340 339 339 339 342 342 341 339 338 330 330 335 335 334
313 308 313 314 313 312 313 313 311 311 310 312 314 338 342 341 340 338 335 333 331 331 334 336 336 337 336 341 341 340 340 339 340 340 340 339 336 333 340 340 339 338 337 329 328 336 335 334 333
315 315 316 313 314 314 315 312 310 310 309 311 311 344 340 337 340 338 337 336 334 334 335 336 337 337 337 338 341 340 340 339 338 338 339 338 335 333 339 339 338 337 331 324 336 336 335 333 331
310 312 316 313 312 313 313 312 310 310 312 311 310 322 344 336 339 338 338 337 335 335 336 337 337 337 337 338 340 340 340 339 337 337 337 337 333 337 336 339 337 332 324 329 334 336 334 334 333
306 307 309 312 313 313 312 309 310 311 310 311 312 334 338 341 340 339 339 338 337 336 337 337 338 338 337 338 339 340 340 339 337 337 336 334 336 336 337 337 334 327 324 330 332 333 334 333 332
306 307 310 308 310 310 309 308 309 309 308 309 310 335 339 340 340 338 338 337 337 337 337 337 337 337 338 339 339 340 339 338 337 337 335 338 336 334 335 335 331 326 329 330 332 333 333 333 331
307 307 308 309 309 309 308 306 306 307 306 305 305 306 327 337 338 339 338 338 337 337 336 337 337 338 338 341 339 340 339 338 337 336 336 336 335 333 333 335 329 328 329 331 332 332 333 333 332
304 305 307 306 303 304 304 303 305 304 304 303 305 307 306 305 311 316 322 337 338 337 336 335 337 337 339 339 341 338 339 338 336 335 335 336 334 334 336 334 332 329 329 330 332 332 333 332 331
303 305 304 303 303 303 303 303 303 302 304 305 305 305 305 305 304 304 304 306 325 338 337 336 337 339 339 337 338 338 338 337 336 335 334 333 333 334 335 329 326 332 331 330 332 333 333 332 331
303 304 303 303 302 301 302 302 301 300 304 304 303 302 302 301 301 301 302 302 304 309 337 339 338 339 341 337 338 338 337 335 336 335 335 334 334 334 333 333 326 323 331 330 332 334 333 332 332
304 305 302 300 297 298 298 297 302 301 303 301 300 299 299 299 299 299 299 300 301 302 308 339 340 342 340 338 337 338 337 336 334 336 335 335 334 335 334 334 330 324 328 330 332 333 333 333 331
300 299 299 300 298 298 299 299 302 301 301 300 299 298 298 297 297 297 298 298 299 301 303 318 341 341 341 338 336 337 336 337 336 336 336 336 336 335 334 333 332 330 327 330 331 333 333 332 331
296 298 300 299 297 296 296 298 301 299 300 299 299 298 297 297 296 296 297 297 298 299 302 317 337 340 342 338 336 336 336 337 336 337 336 337 334 334 331 331 331 327 323 325 330 332 333 331 328
296 297 297 297 295 296 296 301 300 298 297 297 297 297 296 296 296 296 296 297 297 299 301 305 319 338 339 337 337 336 337 335 336 336 336 336 332 334 331 330 331 330 330 329 330 331 332 331 329
295 295 294 294 296 296 296 300 298 296 296 296 295 295 296 295 296 296 296 296 297 298 300 303 306 318 329 337 337 337 336 336 335 336 336 335 334 329 331 332 332 331 330 327 329 331 331 329 328
293 293 293 294 294 295 297 298 296 296 295 295 295 294 295 295 295 296 296 296 297 298 299 301 303 307 317 332 336 336 336 336 334 335 335 334 334 329 330 330 330 330 330 329 330 330 330 327 327
291 292 293 293 293 294 295 299 295 295 295 294 294 294 294 294 295 295 296 296 297 297 298 300 301 304 311 323 336 336 336 334 333 333 333 334 333 332 328 321 327 330 329 328 331 330 330 327 326
291 292 294 294 293 293 294 295 294 294 294 293 293 292 293 293 294 295 295 296 296 297 297 299 300 303 307 314 330 336 335 334 333 333 333 332 333 330 328 322 328 330 329 329 331 331 329 328 327
290 294 294 295 294 293 294 295 293 294 294 293 292 292 291 292 293 294 294 294 296 296 297 298 299 301 304 307 319 327 336 334 333 332 331 331 330 331 331 330 330 331 328 330 330 331 329 328 327
290 292 294 295 294 295 295 295 294 294 294 293 292 292 291 291 291 292 292 293 294 295 296 297 298 300 302 304 310 315 333 335 334 332 331 330 330 329 328 329 328 324 328 325 327 330 330 328 328
290 292 297 296 295 298 298 294 294 293 293 293 292 291 290 290 290 291 292 293 293 294 295 296 297 298 299 302 304 309 314 327 334 332 331 331 329 328 327 327 325 320 321 323 326 330 329 328 327
290 292 297 298 301 300 295 294 293 293 292 291 290 290 290 289 289 290 290 292 293 293 294 296 296 296 297 298 302 305 310 316 330 332 331 330 330 329 328 326 325 323 323 326 326 327 329 328 328
292 295 296 297 298 294 295 293 292 291 291 290 290 289 289 289 289 290 290 290 292 292 293 294 295 295 296 297 300 302 306 312 324 332 331 331 331 330 328 327 325 325 327 328 327 328 330 328 328
292 294 297 298 298 295 293 291 290 290 292 290 289 289 289 289 289 289 289 290 291 291 292 293 295 295 295 296 298 301 302 308 313 325 333 331 331 330 331 327 326 325 325 328 329 328 329 328 328
290 292 294 296 295 295 292 290 290 289 291 292 290 289 289 289 289 289 289 289 290 290 291 292 293 294 295 295 297 300 301 302 307 316 331 333 332 332 332 329 327 325 325 328 329 330 330 329 327
289 290 293 291 290 291 290 287 289 289 289 289 290 290 289 289 290 289 289 289 289 290 290 291 292 293 294 295 296 298 300 300 303 310 321 332 332 331 331 330 328 326 326 328 329 328 327 329 328
Wind_Speed
6 2 3 4 4 5 5 5 3 7 8 4 5 5 11 4 6 4 2 18 16 31 32 28 27 27 28 29 29 29 27 27 28 31 30 29 33 31 31 30 27 26 27 27 27 26 27 28 30
4 3 3 3 4 1 4 3 4 4 8 18 16 4 1 2 2 6 11 13 21 33 32 30 28 27 28 29 29 29 29 28 29 31 30 30 33 33 33 31 27 26 28 27 26 27 28 30 31
3 2 3 4 3 5 4 2 6 17 19 17 5 6 4 4 3 11 8 28 27 32 32 30 28 28 27 28 29 29 29 29 29 30 33 32 35 36 32 31 28 26 26 27 27 28 32 33 31
2 5 4 3 7 5 4 7 8 12 14 7 4 2 3 10 5 9 27 29 34 31 30 28 27 28 27 27 28 29 29 30 29 30 32 36 36 35 33 29 28 27 28 28 28 33 37 34 31
3 3 3 1 5 4 3 6 8 8 11 8 14 3 5 7 14 25 27 30 31 30 29 27 26 27 27 26 27 29 29 29 30 30 31 32 33 31 31 30 28 28 29 30 34 40 37 33 29
4 3 3 3 6 4 5 7 6 5 8 12 15 3 3 6 15 27 27 28 27 31 28 26 25 25 26 27 26 28 30 29 29 28 29 31 31 29 30 29 28 29 31 34 42 40 36 29 28
5 4 3 3 4 5 2 6 7 8 8 10 9 3 4 3 14 23 24 22 25 28 29 27 25 24 25 26 27 28 29 29 28 29 30 31 33 33 31 30 29 31 33 41 42 40 33 28 27
5 4 1 2 2 5 3 8 7 8 15 7 6 4 3 3 12 15 16 18 23 25 25 26 24 24 24 26 26 27 28 30 29 29 31 32 32 35 33 32 29 33 39 43 40 36 30 25 23
3 4 2 3 2 5 8 6 5 9 5 4 10 3 6 18 16 18 16 17 20 23 24 25 25 23 23 26 26 27 29 30 29 29 30 31 33 33 32 31 29 35 42 42 37 31 26 24 24
4 3 5 5 4 6 7 4 6 6 10 7 11 11 9 19 19 16 12 14 21 24 26 26 26 25 24 26 28 29 30 30 30 32 32 34 31 30 27 24 27 35 40 38 35 29 24 26 28
1 4 3 6 7 4 4 6 7 10 11 14 12 12 6 3 9 13 17 23 30 28 27 29 29 28 28 25 30 31 32 33 33 34 34 34 30 29 30 26 26 33 35 34 31 28 26 29 30
3 5 2 6 7 4 3 4 10 13 5 10 20 24 27 31 24 30 29 11 26 28 31 31 31 31 30 25 29 32 33 36 35 36 37 37 32 32 31 29 30 34 34 34 32 28 29 31 28
5 2 4 6 5 3 1 4 11 18 15 17 17 23 25 22 27 31 30 35 24 23 29 32 32 29 31 28 31 31 34 35 33 36 37 37 36 35 30 32 31 31 33 34 33 30 33 31 26
4 4 6 2 8 4 4 7 6 15 14 22 24 21 20 22 27 35 43 36 36 31 21 30 34 33 31 28 34 33 37 34 32 34 38 39 36 33 34 35 36 33 27 30 33 32 32 31 25
7 5 4 8 12 5 4 11 14 13 17 22 22 21 20 20 27 27 29 31 32 35 33 29 32 31 34 33 36 35 36 35 33 35 37 38 36 34 35 34 35 39 31 29 31 30 28 30 27
6 5 4 5 13 7 7 3 13 15 18 19 20 20 21 23 25 28 32 32 37 38 39 22 28 30 35 34 35 35 35 37 35 36 35 34 36 29 29 25 32 38 37 27 30 31 31 30 28
7 4 4 7 7 6 9 2 14 17 19 20 19 19 20 22 30 37 38 36 36 38 37 27 23 31 30 33 31 32 35 37 37 37 38 34 29 32 29 21 20 37 36 33 32 30 32 31 27
8 6 4 1 8 9 10 6 11 15 18 18 18 19 20 21 23 33 37 38 37 38 37 36 19 25 27 25 30 30 32 36 34 36 36 35 31 33 31 26 25 30 35 34 32 30 29 33 30
10 7 6 8 7 12 9 10 11 14 20 21 20 20 20 21 23 33 35 38 38 39 41 38 36 20 10 29 28 32 34 34 35 35 37 38 35 35 34 31 27 29 34 34 33 29 30 26 31
12 5 5 9 17 12 8 9 8 16 17 17 19 21 22 22 25 32 38 38 38 37 37 37 37 35 21 15 30 24 29 30 32 36 39 40 39 44 42 32 27 32 34 31 35 30 25 19 34
12 8 8 13 16 10 6 3 11 14 17 19 20 18 19 22 24 23 34 37 37 37 39 38 38 36 30 22 24 23 20 17 25 31 37 43 41 47 48 49 38 36 39 35 34 35 31 22 27
15 9 18 20 10 4 3 3 11 17 17 20 20 21 21 22 23 21 31 35 37 36 36 36 37 34 34 23 9 26 24 21 30 36 38 44 44 39 42 44 36 37 38 36 34 36 38 26 26
16 17 21 20 17 10 5 5 8 9 16 19 19 21 21 22 22 22 30 33 34 35 35 36 36 36 34 33 13 16 25 28 20 28 31 38 43 45 43 44 42 34 38 36 33 31 33 38 33
21 16 26 16 10 8 10 6 7 7 14 15 17 19 20 21 21 28 33 34 32 34 35 35 37 35 35 34 23 22 16 25 21 25 30 34 39 43 48 48 46 36 34 42 35 36 39 35 33
21 17 5 4 3 2 11 13 4 11 12 15 17 17 18 19 19 20 28 33 33 35 36 34 36 36 38 34 31 25 17 12 30 30 31 32 33 36 43 45 43 41 39 43 43 36 39 40 37
14 3 4 7 5 4 9 6 4 10 14 15 14 14 17 19 18 18 28 32 33 34 33 32 35 35 36 37 32 30 23 22 14 33 33 34 35 38 41 45 43 41 39 38 38 37 36 40 39
11 9 15 5 10 5 4 5 8 16 16 17 17 16 17 18 18 17 25 32 33 34 32 32 33 33 34 35 31 31 28 20 21 23 37 35 33 32 41 43 42 42 37 38 41 38 35 35 37
5 11 6 5 6 4 4 4 8 19 15 17 17 17 17 15 17 16 21 25 31 32 33 32 30 32 33 34 32 29 29 22 21 23 31 30 32 34 36 41 42 41 43 39 38 37 36 40 35
7 7 5 2 6 3 2 4 7 11 14 13 14 15 15 15 15 14 20 22 26 31 34 33 32 32 33 34 34 31 32 29 23 20 26 30 32 34 35 39 43 42 43 42 41 37 36 37 35
7 5 5 3 7 4 2 2 5 9 12 12 13 14 15 15 16 17 20 21 24 27 31 34 33 33 32 32 31 29 28 30 29 23 18 25 31 37 37 38 38 42 43 44 44 42 38 37 36
Wind_Direction
1 93 72 61 54 57 269 273 267 299 322 260 292 291 255 247 161 202 111 168 177 172 172 173 173 167 165 163 163 164 162 162 165 166 161 162 157 152 151 149 148 142 136 130 131 134 129 131 136
24 79 57 81 94 82 278 255 329 280 278 293 302 292 328 184 96 130 125 169 171 166 168 174 173 169 168 166 165 168 168 166 168 172 169 165 161 157 156 153 152 144 139 136 134 132 132 136 135
60 45 81 99 131 199 231 261 299 314 301 290 282 216 195 194 81 154 199 174 169 166 169 174 174 173 172 170 168 169 171 171 172 173 173 168 163 161 158 156 155 148 143 140 138 137 138 137 131
101 16 34 94 236 255 240 316 304 319 321 8 259 276 63 335 135 166 156 164 166 167 171 174 176 176 174 173 171 170 172 173 174 176 174 170 165 163 160 159 157 152 147 144 143 141 138 132 132
46 52 68 259 258 255 273 299 292 310 324 336 337 29 352 22 121 141 149 159 166 169 172 174 179 178 176 174 175 173 173 174 176 177 174 172 164 163 166 162 161 156 150 149 144 140 136 134 133
44 89 64 251 260 287 315 287 301 329 328 340 357 359 348 99 117 144 153 161 168 168 171 174 178 179 178 179 180 177 176 177 176 179 178 172 165 168 174 163 162 156 153 148 145 141 136 133 137
111 90 211 258 289 331 293 348 332 324 331 341 332 45 282 73 139 148 155 161 165 168 170 173 179 180 179 181 183 181 179 179 178 180 176 172 169 172 176 165 162 160 153 150 147 142 137 133 137
110 89 288 273 329 299 274 341 314 343 313 292 1 347 293 18 83 127 147 155 167 172 176 176 178 179 180 180 184 184 184 181 182 183 179 175 172 177 178 166 164 162 154 151 149 144 142 139 147
118 70 233 272 319 266 308 358 287 267 308 39 325 49 126 112 146 152 150 157 171 179 184 183 180 182 182 180 182 185 186 184 184 181 180 174 176 179 177 169 163 161 157 154 151 148 146 145 150
99 117 226 210 246 277 316 289 307 356 345 41 9 25 106 144 156 148 161 172 183 188 190 190 185 182 184 183 182 184 185 186 182 182 177 172 172 180 179 167 164 162 160 155 152 148 149 151 154
91 190 225 266 260 293 303 355 327 358 23 354 352 319 309 193 169 179 182 188 193 193 196 196 191 187 185 183 184 185 185 184 183 181 180 178 178 179 181 175 166 162 162 157 154 151 154 155 159
347 238 96 306 327 351 346 324 71 42 340 336 26 44 42 36 18 11 354 256 197 198 199 197 198 189 190 182 185 184 184 187 187 186 184 181 181 186 186 172 166 165 168 163 159 155 158 159 163
187 22 3 284 301 55 349 10 100 29 21 31 47 39 36 27 19 8 6 2 336 218 206 201 198 193 189 187 185 185 187 188 189 188 189 187 186 188 187 183 169 169 169 168 161 157 161 163 165
311 326 304 348 335 49 17 24 66 358 34 35 26 35 39 28 14 5 4 358 350 344 262 211 201 195 188 187 188 187 192 191 191 191 191 189 187 191 192 190 184 174 180 170 165 160 164 163 163
299 341 7 10 341 21 310 46 12 11 43 39 26 16 23 28 19 9 356 350 347 341 339 229 213 196 192 191 194 189 192 193 194 193 195 194 194 188 189 189 183 179 181 178 169 164 162 165 166
11 55 28 329 14 337 9 72 12 11 40 37 28 19 13 9 17 4 356 354 351 349 344 315 214 209 197 193 192 193 191 192 194 197 197 198 198 195 202 180 175 175 184 177 178 167 166 166 168
12 333 334 319 34 352 44 63 18 23 35 33 22 21 11 4 3 3 358 356 355 351 349 344 237 213 208 195 194 196 195 193 195 195 200 196 187 190 182 184 169 178 177 188 188 172 171 163 165
312 315 316 0 329 352 81 63 29 28 38 31 20 17 15 6 2 355 356 355 355 354 354 355 350 236 214 208 192 199 193 201 195 197 199 199 189 188 180 186 186 180 180 183 181 176 173 174 170
6 342 343 329 336 341 92 71 40 29 34 26 20 15 12 7 351 358 359 357 356 358 356 355 349 326 278 208 202 194 199 193 190 191 196 190 187 180 190 185 193 191 189 185 181 172 169 160 171
12 350 324 303 339 329 122 88 41 45 40 32 19 14 9 360 2 359 357 358 358 355 353 351 349 344 329 259 210 217 203 195 194 190 191 188 186 184 192 178 190 198 192 188 186 176 162 165 173
339 280 320 306 313 278 144 94 26 18 32 23 23 10 10 6 358 356 354 355 354 355 352 348 343 343 342 344 224 210 203 190 190 186 182 188 184 188 193 188 192 198 194 191 190 184 180 169 178
313 333 321 297 296 243 51 281 24 2 21 22 13 9 4 357 359 353 348 351 353 351 349 345 345 344 348 341 296 202 199 193 206 193 184 182 188 180 183 188 196 197 193 196 193 192 188 181 180
308 318 293 270 259 249 236 91 340 6 13 9 7 4 359 354 356 353 348 341 346 349 349 347 345 350 350 345 349 300 204 210 211 196 191 182 187 193 195 196 197 196 192 196 198 192 191 195 186
308 315 301 267 249 241 216 116 25 18 13 2 4 2 352 350 350 351 347 346 346 350 350 349 349 347 348 348 359 341 251 206 203 196 195 188 187 193 201 203 206 201 190 194 212 212 200 197 193
343 345 319 329 134 337 74 70 64 26 18 13 3 359 353 356 355 352 348 348 341 348 349 350 351 349 349 345 350 345 332 283 205 198 197 192 189 191 195 200 204 208 203 199 210 210 204 202 199
315 310 302 321 358 84 42 68 58 40 22 13 4 356 359 2 0 353 353 348 345 344 343 346 352 350 348 348 346 344 332 324 273 196 199 201 196 196 194 197 202 205 207 204 212 213 205 204 203
319 336 304 247 259 63 33 48 68 22 23 12 5 2 5 358 352 349 352 352 349 348 342 346 351 351 351 346 342 345 343 326 282 216 209 205 203 200 199 199 198 198 203 206 209 210 210 205 208
317 313 340 352 351 67 30 59 5 350 4 358 358 1 356 355 347 344 345 351 344 346 346 350 353 352 352 350 346 345 341 345 318 274 210 208 207 201 199 198 200 200 203 207 205 209 214 209 212
349 355 334 241 20 32 66 52 334 337 343 335 341 346 339 334 334 335 336 339 340 346 349 354 356 354 354 353 349 347 349 344 339 330 255 213 205 201 201 200 201 201 203 205 207 208 212 208 213
12 344 331 59 356 11 76 232 332 338 341 332 326 335 339 331 324 329 331 336 337 344 345 353 356 356 353 354 353 350 347 351 348 335 347 223 211 206 205 201 201 203 205 203 206 209 212 206 204